Location: Cherry Springs State Park
(41.6616°N, 77.8240°W)
Time: 19:34:52
(UTC-04:00)

Amateur Radio Satellites - All Passes

Search period start: 01 September 2014 19:04
Search period end: 02 September 2014 19:04
Location: Cherry Springs State Park, 41.6616°N, 77.8240°W

Satellite Date Start Highest point End Downlink Frequencies (MHz)
Time Altitude Azimuth
Sapphire 01 Sep 19:05:41 19:09:02 16° 319° (NW) 19:12:24 437.095 MHz 1200 baud AX-25 AFSK
HO-68 01 Sep 19:06:38 19:08:23 11° 47° (NE) 19:10:07 435.675 MHz FM
RS-15 01 Sep 19:14:51 19:23:14 26° 258° (WSW) 19:31:53 29.354 - 29.394 USB, Beacon 29.352 USB
JAS-2 01 Sep 19:21:07 19:26:26 31° 263° (W) 19:31:18 435.800 - 435.900 CW/SSB, 435.910 FM
PCSat 01 Sep 19:38:23 19:39:00 10° 327° (NNW) 19:39:37 145.825 MHz
SO-67 01 Sep 19:41:10 19:44:37 70° 259° (W) 19:48:05 435.3500 MHz FM
STRAND 1 01 Sep 20:26:48 20:31:52 65° 287° (WNW) 20:36:55 ?
UKube-1 01 Sep 20:35:05 20:37:31 15° 63° (ENE) 20:39:56 145.840 MHz, 145.915 MHz
Oscar 11 01 Sep 20:41:05 20:41:32 10° 60° (ENE) 20:41:59 145.825 FM, Beacon 2401.500 USB
HO-68 01 Sep 20:47:39 20:54:33 55° 67° (ENE) 21:01:29 435.675 MHz FM
MaSat-1 01 Sep 21:32:32 21:35:34 17° 47° (NE) 21:38:23 437.345 MHz
KITSAT 1 01 Sep 21:39:06 21:40:42 11° 97° (E) 21:42:18 435.175 FM
UKube-1 01 Sep 22:09:01 22:13:16 54° 259° (W) 22:17:32 145.840 MHz, 145.915 MHz
Oscar 11 01 Sep 22:12:41 22:17:02 83° 257° (WSW) 22:21:25 145.825 FM, Beacon 2401.500 USB
AO-40 01 Sep 22:23:48 04:41:51 41° 176° (S) 06:47:55 Beacon 2401.320
HO-68 01 Sep 22:36:35 22:42:33 29° 265° (W) 22:48:34 435.675 MHz FM
Saudisat 1A 01 Sep 22:44:12 22:48:37 85° 121° (ESE) 22:53:03 436.775 MHz
FUNcube-1 01 Sep 22:44:31 22:48:42 84° 76° (ENE) 22:53:01 145.950 - 145.970 MHz USB
MaSat-1 01 Sep 23:08:39 23:13:04 55° 249° (WSW) 23:16:51 437.345 MHz
KITSAT 1 01 Sep 23:26:33 23:34:30 64° 115° (ESE) 23:42:29 435.175 FM
Sapphire 02 Sep 00:25:14 00:28:20 15° 39° (NE) 00:31:26 437.095 MHz 1200 baud AX-25 AFSK
Saudisat 1A 02 Sep 00:26:16 00:28:48 15° 321° (NW) 00:31:21 436.775 MHz
PCSat 02 Sep 00:53:43 00:58:07 24° 47° (NE) 01:02:29 145.825 MHz
KITSAT 1 02 Sep 01:23:12 01:30:25 34° 316° (NW) 01:37:40 435.175 FM
Oscar 16 02 Sep 01:36:16 01:39:27 16° 91° (E) 01:42:36 437.025 USB, Beacon 2401.1428
Sapphire 02 Sep 02:07:13 02:12:41 78° 60° (ENE) 02:18:06 437.095 MHz 1200 baud AX-25 AFSK
AO-27 02 Sep 02:08:47 02:11:17 13° 90° (E) 02:13:47 436.795 MHz FM
PCSat 02 Sep 02:36:34 02:41:53 56° 246° (WSW) 02:47:09 145.825 MHz
Oscar 19 02 Sep 02:38:42 02:43:52 61° 101° (E) 02:48:59 437.125 CW, 437.150 USB
AO-Echo 02 Sep 02:47:47 02:52:04 34° 97° (E) 02:56:21 ?
Gurwin Techsat 1B 02 Sep 02:49:39 02:52:44 15° 90° (E) 02:55:48 435.225 FM
Oscar 16 02 Sep 03:14:04 03:19:13 62° 287° (WNW) 03:24:19 437.025 USB, Beacon 2401.1428
ITAMSAT 1 02 Sep 03:16:27 03:21:35 59° 101° (E) 03:26:42 435.822 SSB
Oscar 10/S400 02 Sep 03:21:25 04:32:42 37° 232° (SW) 09:08:39 145.825 - 145.975 CW/USB, Beacon 145.810 USB
SO-50 02 Sep 03:23:25 03:27:44 50° 118° (ESE) 03:32:09 436.795 FM
KITSAT 1 02 Sep 03:25:12 03:28:47 13° 344° (NNW) 03:32:23 435.175 FM
Uribyol 2 02 Sep 03:25:45 03:30:58 77° 103° (ESE) 03:36:10 436.500 FM
JAS-1B 02 Sep 03:31:34 03:38:12 69° 102° (ESE) 03:43:59 435.800 - 435.900 CW/SSB
TMSAT-1 02 Sep 03:38:21 03:43:05 32° 96° (E) 03:47:48 436.925 FM
AO-7 02 Sep 03:44:23 03:46:23 11° 86° (E) 03:48:24 29.400 - 29.500 MHz
AO-27 02 Sep 03:46:09 03:51:20 73° 286° (WNW) 03:56:30 436.795 MHz FM
Sapphire 02 Sep 03:52:37 03:55:23 14° 257° (WSW) 03:58:08 437.095 MHz 1200 baud AX-25 AFSK
OPAL 02 Sep 04:16:17 04:21:08 48° 68° (ENE) 04:26:05 ?
Oscar 19 02 Sep 04:19:16 04:22:42 18° 298° (WNW) 04:26:08 437.125 CW, 437.150 USB
AO-Echo 02 Sep 04:26:53 04:30:42 25° 293° (WNW) 04:34:31 ?
Gurwin Techsat 1B 02 Sep 04:27:54 04:33:10 67° 287° (WNW) 04:38:25 435.225 FM
ITAMSAT 1 02 Sep 04:57:07 05:00:36 19° 298° (WNW) 05:04:05 435.822 SSB
SO-50 02 Sep 05:05:02 05:08:34 22° 317° (NW) 05:12:11 436.795 FM
Uribyol 2 02 Sep 05:07:01 05:09:47 15° 300° (WNW) 05:12:33 436.500 FM
UOSAT-12 02 Sep 05:09:18 05:13:43 48° 117° (ESE) 05:18:14 437.025 FM, 437.400 FM
TMSAT-1 02 Sep 05:18:17 05:22:57 33° 293° (WNW) 05:27:37 436.925 FM
Uosat F 02 Sep 05:18:40 05:23:34 52° 100° (E) 05:28:26 435.120 FM
JAS-1B 02 Sep 05:23:31 05:28:00 19° 305° (NW) 05:32:07 435.800 - 435.900 CW/SSB
KITSAT 1 02 Sep 05:24:58 05:28:34 13° 16° (NNE) 05:32:10 435.175 FM
AO-7 02 Sep 05:32:24 05:40:40 66° 105° (ESE) 05:48:52 29.400 - 29.500 MHz
Saudisat 1A 02 Sep 05:33:04 05:34:50 12° 36° (NE) 05:36:34 436.775 MHz
OPAL 02 Sep 05:56:28 06:00:15 21° 265° (W) 06:04:06 ?
STRAND 1 02 Sep 06:05:16 06:09:13 23° 64° (ENE) 06:13:11 ?
Hamsat 02 Sep 06:23:10 06:26:43 24° 94° (E) 06:30:14 145.90 MHz
JAS-2 02 Sep 06:28:29 06:33:06 29° 97° (E) 06:38:02 435.800 - 435.900 CW/SSB, 435.910 FM
UOSAT-12 02 Sep 06:50:19 06:54:06 24° 316° (NW) 06:57:57 437.025 FM, 437.400 FM
Uosat F 02 Sep 06:58:27 07:01:57 20° 297° (WNW) 07:05:27 435.120 FM
Saudisat 1A 02 Sep 07:10:48 07:15:13 71° 55° (NE) 07:19:36 436.775 MHz
KITSAT 1 02 Sep 07:19:40 07:26:56 35° 44° (NE) 07:34:08 435.175 FM
RS-15 02 Sep 07:24:33 07:35:10 55° 112° (ESE) 07:45:37 29.354 - 29.394 USB, Beacon 29.352 USB
AO-7 02 Sep 07:26:01 07:32:52 30° 304° (NW) 07:39:43 29.400 - 29.500 MHz
STRAND 1 02 Sep 07:43:17 07:48:08 44° 261° (W) 07:53:00 ?
Hamsat 02 Sep 07:58:53 08:02:40 30° 291° (WNW) 08:06:25 145.90 MHz
JAS-2 02 Sep 08:13:29 08:18:16 36° 291° (WNW) 08:23:22 435.800 - 435.900 CW/SSB, 435.910 FM
SO-67 02 Sep 08:37:39 08:41:04 58° 285° (WNW) 08:44:28 435.3500 MHz FM
Saudisat 1A 02 Sep 08:52:28 08:54:12 12° 252° (WSW) 08:55:56 436.775 MHz
KITSAT 1 02 Sep 09:14:52 09:22:49 64° 245° (WSW) 09:30:43 435.175 FM
RS-15 02 Sep 09:37:09 09:47:41 48° 316° (NW) 09:58:11 29.354 - 29.394 USB, Beacon 29.352 USB
ISS 02 Sep 09:47:50 09:50:58 40° 138° (SE) 09:54:07 145.800 FM
UKube-1 02 Sep 09:57:31 10:01:03 24° 95° (E) 10:04:34 145.840 MHz, 145.915 MHz
Oscar 11 02 Sep 10:01:11 10:04:10 18° 92° (E) 10:07:08 145.825 FM, Beacon 2401.500 USB
HO-68 02 Sep 10:02:23 10:09:24 56° 102° (ESE) 10:16:24 435.675 MHz FM
SO-50 02 Sep 10:16:42 10:17:36 10° 32° (NNE) 10:18:30 436.795 FM
FUNcube-1 02 Sep 10:34:17 10:37:19 17° 92° (E) 10:40:23 145.950 - 145.970 MHz USB
KITSAT 1 02 Sep 11:15:28 11:16:35 10° 263° (W) 11:17:43 435.175 FM
ISS 02 Sep 11:24:46 11:27:46 30° 336° (NNW) 11:30:46 145.800 FM
UKube-1 02 Sep 11:33:26 11:37:15 31° 291° (WNW) 11:41:04 145.840 MHz, 145.915 MHz
Oscar 11 02 Sep 11:36:25 11:40:32 41° 289° (WNW) 11:44:37 145.825 FM, Beacon 2401.500 USB
HO-68 02 Sep 11:50:43 11:56:43 30° 300° (WNW) 12:02:43 435.675 MHz FM
SO-50 02 Sep 11:54:37 11:59:17 50° 52° (NE) 12:04:00 436.795 FM
RS-15 02 Sep 11:55:40 12:03:40 22° 348° (NNW) 12:11:45 29.354 - 29.394 USB, Beacon 29.352 USB
FUNcube-1 02 Sep 12:09:33 12:13:56 47° 288° (WNW) 12:18:20 145.950 - 145.970 MHz USB
Oscar 19 02 Sep 12:20:24 12:22:22 12° 58° (ENE) 12:24:20 437.125 CW, 437.150 USB
JAS-1B 02 Sep 12:28:01 12:33:11 17° 53° (NE) 12:38:00 435.800 - 435.900 CW/SSB
Oscar 16 02 Sep 12:53:11 12:57:20 25° 65° (ENE) 13:01:30 437.025 USB, Beacon 2401.1428
MaSat-1 02 Sep 12:55:25 13:00:14 59° 111° (ESE) 13:05:19 437.345 MHz
ITAMSAT 1 02 Sep 12:59:05 13:01:10 12° 58° (ENE) 13:03:14 435.822 SSB
ISS 02 Sep 13:03:16 13:05:17 15° 356° (N) 13:07:19 145.800 FM
Uribyol 2 02 Sep 13:07:13 13:10:14 16° 60° (ENE) 13:13:14 436.500 FM
PANSAT 02 Sep 13:11:39 13:12:54 11° 184° (S) 13:14:08 not established
AO-27 02 Sep 13:26:40 13:30:38 23° 64° (ENE) 13:34:35 436.795 MHz FM
SO-50 02 Sep 13:35:58 13:39:31 21° 249° (WSW) 13:43:06 436.795 FM
UOSAT-12 02 Sep 13:38:40 13:43:13 45° 51° (NE) 13:47:42 437.025 FM, 437.400 FM
Oscar 19 02 Sep 13:55:44 14:00:54 88° 76° (ENE) 14:06:08 437.125 CW, 437.150 USB
AO-Echo 02 Sep 14:00:47 14:05:33 47° 71° (ENE) 14:10:12 ?
Gurwin Techsat 1B 02 Sep 14:10:35 14:14:54 26° 65° (ENE) 14:19:14 435.225 FM
RS-15 02 Sep 14:12:19 14:21:14 27° 24° (NNE) 14:30:18 29.354 - 29.394 USB, Beacon 29.352 USB
JAS-1B 02 Sep 14:12:49 14:22:24 67° 71° (ENE) 14:30:52 435.800 - 435.900 CW/SSB
Oscar 16 02 Sep 14:31:35 14:36:26 42° 262° (W) 14:41:21 437.025 USB, Beacon 2401.1428
MaSat-1 02 Sep 14:33:49 14:37:40 22° 310° (NW) 14:41:35 437.345 MHz
ITAMSAT 1 02 Sep 14:34:43 14:39:53 90° 251° (WSW) 14:45:05 435.822 SSB
ISS 02 Sep 14:40:24 14:42:57 20° 16° (NNE) 14:45:31 145.800 FM
AO-7 02 Sep 14:42:09 14:47:56 21° 51° (NE) 14:53:42 29.400 - 29.500 MHz
Uribyol 2 02 Sep 14:43:59 14:49:07 70° 258° (WSW) 14:54:17 436.500 FM
TMSAT-1 02 Sep 14:59:14 15:04:20 51° 71° (ENE) 15:09:27 436.925 FM
AO-27 02 Sep 15:04:52 15:09:49 47° 261° (W) 15:14:49 436.795 MHz FM
UOSAT-12 02 Sep 15:19:26 15:23:05 22° 249° (WSW) 15:26:41 437.025 FM, 437.400 FM
PCSat 02 Sep 15:37:09 15:40:42 18° 105° (ESE) 15:44:15 145.825 MHz
Oscar 19 02 Sep 15:39:51 15:40:55 11° 272° (W) 15:42:00 437.125 CW, 437.150 USB
AO-Echo 02 Sep 15:40:59 15:44:32 19° 267° (W) 15:48:02 ?
Gurwin Techsat 1B 02 Sep 15:49:39 15:54:38 41° 262° (W) 15:59:40 435.225 FM
JAS-1B 02 Sep 16:04:54 16:13:10 32° 266° (W) 16:20:47 435.800 - 435.900 CW/SSB
ISS 02 Sep 16:16:45 16:20:05 82° 36° (NE) 16:23:25 145.800 FM
ITAMSAT 1 02 Sep 16:19:34 16:20:04 10° 272° (W) 16:20:34 435.822 SSB
RS-15 02 Sep 16:24:59 16:36:04 69° 53° (NE) 16:47:32 29.354 - 29.394 USB, Beacon 29.352 USB
OPAL 02 Sep 16:28:15 16:30:11 12° 91° (E) 16:32:07 ?
AO-7 02 Sep 16:31:15 16:39:36 87° 71° (ENE) 16:47:59 29.400 - 29.500 MHz
Uosat F 02 Sep 16:32:05 16:37:04 75° 74° (ENE) 16:42:05 435.120 FM
TMSAT-1 02 Sep 16:40:43 16:44:32 20° 268° (W) 16:48:23 436.925 FM
JAS-2 02 Sep 16:44:08 16:46:46 13° 60° (ENE) 16:49:18 435.800 - 435.900 CW/SSB, 435.910 FM
Sapphire 02 Sep 16:49:01 16:54:22 70° 116° (ESE) 16:59:47 437.095 MHz 1200 baud AX-25 AFSK
Hamsat 02 Sep 17:17:14 17:20:18 19° 66° (ENE) 17:23:23 145.90 MHz
PCSat 02 Sep 17:18:12 17:23:33 64° 302° (WNW) 17:28:58 145.825 MHz
ISS 02 Sep 17:55:08 17:56:22 12° 231° (SW) 17:57:35 145.800 FM
OPAL 02 Sep 18:04:25 18:09:40 83° 287° (WNW) 18:14:52 ?
Uosat F 02 Sep 18:14:22 18:16:24 12° 270° (W) 18:18:26 435.120 FM
JAS-2 02 Sep 18:25:13 18:31:17 87° 256° (WSW) 18:36:45 435.800 - 435.900 CW/SSB, 435.910 FM
AO-7 02 Sep 18:27:46 18:33:19 19° 269° (W) 18:38:55 29.400 - 29.500 MHz
Sapphire 02 Sep 18:34:20 18:38:20 21° 316° (NW) 18:42:22 437.095 MHz 1200 baud AX-25 AFSK
RS-15 02 Sep 18:38:08 18:47:39 35° 254° (WSW) 18:57:33 29.354 - 29.394 USB, Beacon 29.352 USB
Hamsat 02 Sep 18:51:54 18:55:58 40° 262° (W) 19:00:05 145.90 MHz
